Time,TemperatureF,DewpointF,PressureIn,WindDirection,WindDirectionDegrees,WindSpeedMPH,WindSpeedGustMPH,Humidity,HourlyPrecipIn,Conditions,Clouds,dailyrainin,SoftwareType,DateUTC
2013-01-03 00:05:00,40.0,38.4,30.30,ESE,103,0.0,0.0,94,0.00,,,0.00,Wunderground v.1.15,2013-01-03 05:05:00,
2013-01-03 00:10:00,40.0,38.4,30.29,ESE,103,0.0,0.0,94,0.00,,,0.00,Wunderground v.1.15,2013-01-03 05:10:00,
2013-01-03 00:20:00,40.1,38.5,30.29,ESE,113,0.0,0.0,94,0.00,,,0.00,Wunderground v.1.15,2013-01-03 05:20:00,
2013-01-03 00:30:00,40.0,38.4,30.29,ESE,113,0.0,0.0,94,0.00,,,0.00,Wunderground v.1.15,2013-01-03 05:30:00,
2013-01-03 00:40:00,39.9,38.3,30.28,ESE,113,0.0,0.0,94,0.00,,,0.00,Wunderground v.1.15,2013-01-03 05:40:00,
2013-01-03 00:45:00,39.9,38.3,30.27,ESE,113,0.0,0.0,94,0.00,,,0.00,Wunderground v.1.15,2013-01-03 05:45:00,
2013-01-03 00:50:00,39.8,38.2,30.27,ESE,113,0.0,0.0,94,0.00,,,0.00,Wunderground v.1.15,2013-01-03 05:50:00,
2013-01-03 01:00:00,39.8,38.2,30.25,SSE,148,0.0,0.0,94,0.00,,,0.00,Wunderground v.1.15,2013-01-03 06:00:00,
2013-01-03 01:10:00,39.7,38.1,30.25,SSE,148,0.0,1.0,94,0.00,,,0.00,Wunderground v.1.15,2013-01-03 06:10:00,
2013-01-03 01:15:00,39.7,38.1,30.26,SSE,148,0.0,1.0,94,0.00,,,0.00,Wunderground v.1.15,2013-01-03 06:15:00,
2013-01-03 01:25:00,39.8,38.2,30.26,SSE,153,0.0,0.0,94,0.00,,,0.00,Wunderground v.1.15,2013-01-03 06:25:00,
2013-01-03 01:30:00,39.7,37.8,30.26,SSE,150,0.0,0.0,93,0.00,,,0.00,Wunderground v.1.15,2013-01-03 06:30:00,
2013-01-03 01:40:00,39.8,37.9,30.26,SE,139,0.0,0.0,93,0.00,,,0.00,Wunderground v.1.15,2013-01-03 06:40:00,
2013-01-03 01:50:00,39.8,37.9,30.26,SE,141,0.0,0.0,93,0.00,,,0.00,Wunderground v.1.15,2013-01-03 06:50:00,
2013-01-03 02:00:00,39.7,37.8,30.27,East,101,0.0,0.0,93,0.00,,,0.00,Wunderground v.1.15,2013-01-03 07:00:00,
2013-01-03 02:05:00,39.8,37.9,30.28,East,100,0.0,1.0,93,0.00,,,0.00,Wunderground v.1.15,2013-01-03 07:05:00,
2013-01-03 02:15:00,39.8,37.9,30.29,SSE,167,0.0,1.0,93,0.00,,,0.00,Wunderground v.1.15,2013-01-03 07:15:00,
2013-01-03 02:25:00,39.8,37.9,30.29,SSE,166,0.0,0.0,93,0.00,,,0.00,Wunderground v.1.15,2013-01-03 07:25:00,
2013-01-03 02:35:00,39.8,37.9,30.28,SSE,167,0.0,0.0,93,0.00,,,0.00,Wunderground v.1.15,2013-01-03 07:35:00,
2013-01-03 02:45:00,39.7,37.8,30.28,SSE,166,0.0,0.0,93,0.00,,,0.00,Wunderground v.1.15,2013-01-03 07:45:00,
2013-01-03 02:55:00,39.8,37.9,30.29,SSE,166,0.0,0.0,93,0.00,,,0.00,Wunderground v.1.15,2013-01-03 07:55:00,
2013-01-03 03:05:00,39.8,37.9,30.29,SE,132,0.0,1.0,93,0.00,,,0.00,Wunderground v.1.15,2013-01-03 08:05:00,
2013-01-03 03:15:00,39.8,37.9,30.29,SE,133,0.0,1.0,93,0.00,,,0.00,Wunderground v.1.15,2013-01-03 08:15:00,
2013-01-03 03:25:00,39.7,38.1,30.29,SE,132,0.0,0.0,94,0.00,,,0.00,Wunderground v.1.15,2013-01-03 08:25:00,
2013-01-03 03:30:00,39.6,38.0,30.29,SE,132,0.0,0.0,94,0.00,,,0.00,Wunderground v.1.15,2013-01-03 08:30:00,
2013-01-03 03:40:00,39.6,38.0,30.29,SE,133,0.0,0.0,94,0.00,,,0.00,Wunderground v.1.15,2013-01-03 08:40:00,
2013-01-03 03:50:00,39.6,38.0,30.28,SE,133,0.0,0.0,94,0.00,,,0.00,Wunderground v.1.15,2013-01-03 08:50:00,
2013-01-03 04:00:00,39.6,38.0,30.28,SSE,166,0.0,0.0,94,0.00,,,0.00,Wunderground v.1.15,2013-01-03 09:00:00,
2013-01-03 04:05:00,39.6,38.0,30.28,East,94,0.0,0.0,94,0.00,,,0.00,Wunderground v.1.15,2013-01-03 09:05:00,
2013-01-03 04:10:00,39.6,38.0,30.29,East,94,0.0,0.0,94,0.00,,,0.00,Wunderground v.1.15,2013-01-03 09:10:00,
2013-01-03 04:15:00,39.6,38.0,30.28,East,95,0.0,0.0,94,0.00,,,0.00,Wunderground v.1.15,2013-01-03 09:15:00,
2013-01-03 04:25:00,39.5,37.9,30.27,NE,35,0.0,0.0,94,0.00,,,0.00,Wunderground v.1.15,2013-01-03 09:25:00,
2013-01-03 04:35:00,39.6,38.0,30.27,ESE,106,0.0,1.0,94,0.00,,,0.00,Wunderground v.1.15,2013-01-03 09:35:00,
2013-01-03 04:45:00,39.5,37.9,30.27,ESE,106,0.0,0.0,94,0.00,,,0.00,Wunderground v.1.15,2013-01-03 09:45:00,
2013-01-03 04:50:00,39.5,37.9,30.27,ESE,106,0.0,0.0,94,0.00,,,0.00,Wunderground v.1.15,2013-01-03 09:50:00,
2013-01-03 04:55:00,39.5,37.9,30.27,ESE,106,0.0,0.0,94,0.00,,,0.00,Wunderground v.1.15,2013-01-03 09:55:00,
2013-01-03 05:05:00,39.5,37.9,30.27,SE,144,0.0,1.0,94,0.00,,,0.00,Wunderground v.1.15,2013-01-03 10:05:00,
2013-01-03 05:10:00,39.6,38.0,30.28,SE,143,0.0,1.0,94,0.00,,,0.00,Wunderground v.1.15,2013-01-03 10:10:00,
2013-01-03 05:20:00,39.5,37.9,30.28,SE,143,0.0,0.0,94,0.00,,,0.00,Wunderground v.1.15,2013-01-03 10:20:00,
2013-01-03 05:30:00,39.5,37.9,30.28,SE,146,0.0,0.0,94,0.00,,,0.00,Wunderground v.1.15,2013-01-03 10:30:00,
2013-01-03 05:35:00,39.6,38.0,30.28,SE,146,0.0,0.0,94,0.00,,,0.00,Wunderground v.1.15,2013-01-03 10:35:00,
2013-01-03 05:45:00,39.5,37.9,30.28,SSE,148,0.0,0.0,94,0.00,,,0.00,Wunderground v.1.15,2013-01-03 10:45:00,
2013-01-03 05:55:00,39.6,38.0,30.28,SSE,148,0.0,0.0,94,0.00,,,0.00,Wunderground v.1.15,2013-01-03 10:55:00,
2013-01-03 06:05:00,39.6,38.0,30.28,SSW,200,0.0,2.0,94,0.00,,,0.00,Wunderground v.1.15,2013-01-03 11:05:00,
2013-01-03 06:10:00,39.6,38.0,30.29,SSE,149,0.0,2.0,94,0.00,,,0.00,Wunderground v.1.15,2013-01-03 11:10:00,
2013-01-03 06:15:00,39.6,38.0,30.28,SE,132,0.0,2.0,94,0.00,,,0.00,Wunderground v.1.15,2013-01-03 11:15:00,
2013-01-03 06:25:00,39.5,37.9,30.29,SE,132,0.0,0.0,94,0.00,,,0.00,Wunderground v.1.15,2013-01-03 11:25:00,
2013-01-03 06:30:00,39.5,37.9,30.30,SE,134,0.0,0.0,94,0.00,,,0.00,Wunderground v.1.15,2013-01-03 11:30:00,
2013-01-03 06:40:00,39.5,37.9,30.31,SE,131,0.0,0.0,94,0.00,,,0.00,Wunderground v.1.15,2013-01-03 11:40:00,
2013-01-03 06:50:00,39.5,37.9,30.31,SE,139,0.0,0.0,94,0.00,,,0.00,Wunderground v.1.15,2013-01-03 11:50:00,
2013-01-03 06:55:00,39.5,37.9,30.30,SE,138,0.0,0.0,94,0.00,,,0.00,Wunderground v.1.15,2013-01-03 11:55:00,
2013-01-03 07:05:00,39.5,37.9,30.30,SE,140,0.0,0.0,94,0.00,,,0.00,Wunderground v.1.15,2013-01-03 12:05:00,
2013-01-03 07:15:00,39.5,37.9,30.30,SE,144,0.0,0.0,94,0.00,,,0.00,Wunderground v.1.15,2013-01-03 12:15:00,
2013-01-03 07:20:00,39.4,37.8,30.31,SE,145,0.0,0.0,94,0.00,,,0.00,Wunderground v.1.15,2013-01-03 12:20:00,
2013-01-03 07:30:00,39.5,37.9,30.30,SE,141,0.0,0.0,94,0.00,,,0.00,Wunderground v.1.15,2013-01-03 12:30:00,
2013-01-03 07:40:00,39.4,37.8,30.30,SE,142,0.0,0.0,94,0.00,,,0.00,Wunderground v.1.15,2013-01-03 12:40:00,
2013-01-03 07:45:00,39.5,37.9,30.30,SE,143,0.0,0.0,94,0.00,,,0.00,Wunderground v.1.15,2013-01-03 12:45:00,
2013-01-03 07:55:00,39.5,37.9,30.31,SE,145,0.0,0.0,94,0.00,,,0.00,Wunderground v.1.15,2013-01-03 12:55:00,
2013-01-03 08:00:00,39.5,37.9,30.31,SE,145,0.0,0.0,94,0.00,,,0.00,Wunderground v.1.15,2013-01-03 13:00:00,
2013-01-03 08:05:00,39.5,37.9,30.32,SE,146,0.0,1.0,94,0.00,,,0.00,Wunderground v.1.15,2013-01-03 13:05:00,
2013-01-03 08:15:00,39.6,38.0,30.32,SE,145,0.0,1.0,94,0.00,,,0.00,Wunderground v.1.15,2013-01-03 13:15:00,
2013-01-03 08:20:00,39.6,37.7,30.31,SSE,148,0.0,0.0,93,0.00,,,0.00,Wunderground v.1.15,2013-01-03 13:20:00,
2013-01-03 08:30:00,39.6,37.7,30.31,SE,146,0.0,0.0,93,0.00,,,0.00,Wunderground v.1.15,2013-01-03 13:30:00,
2013-01-03 08:35:00,39.7,37.8,30.31,SE,143,0.0,1.0,93,0.00,,,0.00,Wunderground v.1.15,2013-01-03 13:35:00,
2013-01-03 08:45:00,39.7,37.6,30.32,SE,143,0.0,0.0,92,0.00,,,0.00,Wunderground v.1.15,2013-01-03 13:45:00,
2013-01-03 08:50:00,39.8,37.7,30.32,SE,132,0.0,0.0,92,0.00,,,0.00,Wunderground v.1.15,2013-01-03 13:50:00,
2013-01-03 08:55:00,39.9,38.0,30.32,NW,319,0.0,0.0,93,0.00,,,0.00,Wunderground v.1.15,2013-01-03 13:55:00,
2013-01-03 09:05:00,40.1,37.7,30.33,SSE,148,1.0,1.0,91,0.00,,,0.00,Wunderground v.1.15,2013-01-03 14:05:00,
2013-01-03 09:10:00,40.2,37.8,30.32,SSE,159,1.0,1.0,91,0.00,,,0.00,Wunderground v.1.15,2013-01-03 14:10:00,
2013-01-03 09:20:00,40.3,37.6,30.33,SE,133,0.0,0.0,90,0.00,,,0.00,Wunderground v.1.15,2013-01-03 14:20:00,
2013-01-03 09:30:00,40.5,37.8,30.34,SE,140,0.0,0.0,90,0.00,,,0.00,Wunderground v.1.15,2013-01-03 14:30:00,
2013-01-03 09:40:00,40.7,37.4,30.33,East,96,1.0,1.0,88,0.00,,,0.00,Wunderground v.1.15,2013-01-03 14:40:00,
2013-01-03 09:45:00,40.7,37.4,30.34,SE,141,1.0,2.0,88,0.00,,,0.00,Wunderground v.1.15,2013-01-03 14:45:00,
2013-01-03 09:50:00,40.8,37.2,30.34,ESE,108,0.0,1.0,87,0.00,,,0.00,Wunderground v.1.15,2013-01-03 14:50:00,
2013-01-03 10:00:00,40.9,37.0,30.34,SE,129,1.0,1.0,86,0.00,,,0.00,Wunderground v.1.15,2013-01-03 15:00:00,
2013-01-03 10:05:00,41.0,36.8,30.34,East,96,0.0,3.0,85,0.00,,,0.00,Wunderground v.1.15,2013-01-03 15:05:00,
2013-01-03 10:15:00,41.2,37.0,30.34,ESE,121,0.0,3.0,85,0.00,,,0.00,Wunderground v.1.15,2013-01-03 15:15:00,
2013-01-03 10:25:00,41.3,36.8,30.34,SE,143,1.0,1.0,84,0.00,,,0.00,Wunderground v.1.15,2013-01-03 15:25:00,
2013-01-03 10:35:00,41.5,37.0,30.34,ESE,115,0.0,0.0,84,0.00,,,0.00,Wunderground v.1.15,2013-01-03 15:35:00,
2013-01-03 10:40:00,41.5,36.7,30.34,SSE,160,1.0,1.0,83,0.00,,,0.00,Wunderground v.1.15,2013-01-03 15:40:00,
2013-01-03 10:50:00,41.6,36.5,30.33,ESE,115,0.0,1.0,82,0.00,,,0.00,Wunderground v.1.15,2013-01-03 15:50:00,
2013-01-03 11:00:00,42.0,36.6,30.34,ESE,116,1.0,3.0,81,0.00,,,0.00,Wunderground v.1.15,2013-01-03 16:00:00,
2013-01-03 11:10:00,42.2,36.2,30.33,East,82,1.0,3.0,79,0.00,,,0.00,Wunderground v.1.15,2013-01-03 16:10:00,
2013-01-03 11:20:00,42.4,36.0,30.33,East,84,1.0,1.0,78,0.00,,,0.00,Wunderground v.1.15,2013-01-03 16:20:00,
2013-01-03 11:25:00,42.6,36.2,30.32,ESE,120,0.0,1.0,78,0.00,,,0.00,Wunderground v.1.15,2013-01-03 16:25:00,
2013-01-03 11:30:00,42.9,35.9,30.32,East,89,0.0,0.0,76,0.00,,,0.00,Wunderground v.1.15,2013-01-03 16:30:00,
2013-01-03 11:40:00,42.5,35.5,30.31,SE,141,1.0,1.0,76,0.00,,,0.00,Wunderground v.1.15,2013-01-03 16:40:00,
2013-01-03 11:50:00,42.7,36.0,30.31,SSW,197,1.0,1.0,77,0.00,,,0.00,Wunderground v.1.15,2013-01-03 16:50:00,
2013-01-03 11:55:00,43.1,35.7,30.31,SSW,192,0.0,1.0,75,0.00,,,0.00,Wunderground v.1.15,2013-01-03 16:55:00,
2013-01-03 12:05:00,43.5,36.4,30.31,North,4,0.0,3.0,76,0.00,,,0.00,Wunderground v.1.15,2013-01-03 17:05:00,
2013-01-03 12:15:00,43.5,36.1,30.31,ESE,102,0.0,3.0,75,0.00,,,0.00,Wunderground v.1.15,2013-01-03 17:15:00,
2013-01-03 12:25:00,43.3,36.2,30.30,East,91,1.0,1.0,76,0.00,,,0.00,Wunderground v.1.15,2013-01-03 17:25:00,
2013-01-03 12:30:00,43.4,35.3,30.30,East,99,1.0,2.0,73,0.00,,,0.00,Wunderground v.1.15,2013-01-03 17:30:00,
2013-01-03 12:40:00,43.7,35.6,30.29,SE,130,0.0,0.0,73,0.00,,,0.00,Wunderground v.1.15,2013-01-03 17:40:00,
2013-01-03 12:50:00,43.7,35.6,30.27,East,96,1.0,1.0,73,0.00,,,0.00,Wunderground v.1.15,2013-01-03 17:50:00,
2013-01-03 13:00:00,43.9,35.5,30.28,West,260,1.0,1.0,72,0.00,,,0.00,Wunderground v.1.15,2013-01-03 18:00:00,
2013-01-03 13:10:00,44.1,35.3,30.27,East,91,1.0,3.0,71,0.00,,,0.00,Wunderground v.1.15,2013-01-03 18:10:00,
2013-01-03 13:15:00,43.9,35.1,30.27,ESE,106,1.0,3.0,71,0.00,,,0.00,Wunderground v.1.15,2013-01-03 18:15:00,
2013-01-03 13:20:00,43.8,35.4,30.27,SE,136,1.0,1.0,72,0.00,,,0.00,Wunderground v.1.15,2013-01-03 18:20:00,
2013-01-03 13:25:00,44.1,35.6,30.28,SW,232,1.0,1.0,72,0.00,,,0.00,Wunderground v.1.15,2013-01-03 18:25:00,
2013-01-03 13:35:00,44.2,35.0,30.28,NW,310,1.0,1.0,70,0.00,,,0.00,Wunderground v.1.15,2013-01-03 18:35:00,
2013-01-03 13:45:00,44.4,34.9,30.27,SE,132,1.0,2.0,69,0.00,,,0.00,Wunderground v.1.15,2013-01-03 18:45:00,
2013-01-03 13:50:00,44.4,35.2,30.27,East,101,1.0,1.0,70,0.00,,,0.00,Wunderground v.1.15,2013-01-03 18:50:00,
2013-01-03 14:00:00,44.5,35.0,30.27,WNW,291,1.0,1.0,69,0.00,,,0.00,Wunderground v.1.15,2013-01-03 19:00:00,
2013-01-03 14:10:00,44.5,35.3,30.27,WNW,284,1.0,1.0,70,0.00,,,0.00,Wunderground v.1.15,2013-01-03 19:10:00,
2013-01-03 15:00:00,44.3,35.5,30.28,WNW,291,1.0,1.0,71,0.00,,,0.00,Wunderground v.1.15,2013-01-03 20:00:00,
2013-01-03 15:05:00,44.4,35.9,30.28,NNW,338,0.0,3.0,72,0.00,,,0.00,Wunderground v.1.15,2013-01-03 20:05:00,
2013-01-03 15:15:00,44.5,35.7,30.29,NNE,26,0.0,3.0,71,0.00,,,0.00,Wunderground v.1.15,2013-01-03 20:15:00,
2013-01-03 15:20:00,44.5,35.7,30.29,NNE,26,0.0,0.0,71,0.00,,,0.00,Wunderground v.1.15,2013-01-03 20:20:00,
2013-01-03 15:30:00,44.5,36.4,30.30,NNW,331,0.0,0.0,73,0.00,,,0.00,Wunderground v.1.15,2013-01-03 20:30:00,
2013-01-03 15:35:00,44.4,35.9,30.30,NNW,327,0.0,0.0,72,0.00,,,0.00,Wunderground v.1.15,2013-01-03 20:35:00,
2013-01-03 15:45:00,44.4,36.3,30.30,West,281,0.0,0.0,73,0.00,,,0.00,Wunderground v.1.15,2013-01-03 20:45:00,
2013-01-03 15:50:00,44.3,36.9,30.31,WNW,288,0.0,1.0,75,0.00,,,0.00,Wunderground v.1.15,2013-01-03 20:50:00,
2013-01-03 15:55:00,44.0,37.6,30.31,NW,307,1.0,1.0,78,0.00,,,0.00,Wunderground v.1.15,2013-01-03 20:55:00,
2013-01-03 16:05:00,43.5,37.7,30.31,WNW,295,1.0,2.0,80,0.00,,,0.00,Wunderground v.1.15,2013-01-03 21:05:00,
2013-01-03 16:15:00,43.1,37.3,30.32,NW,315,1.0,3.0,80,0.00,,,0.00,Wunderground v.1.15,2013-01-03 21:15:00,
2013-01-03 16:25:00,43.0,37.3,30.32,NW,319,1.0,1.0,80,0.00,,,0.00,Wunderground v.1.15,2013-01-03 21:25:00,
2013-01-03 16:30:00,42.8,37.1,30.32,NW,313,1.0,1.0,80,0.00,,,0.00,Wunderground v.1.15,2013-01-03 21:30:00,
2013-01-03 16:40:00,42.6,36.9,30.32,NW,307,1.0,1.0,80,0.00,,,0.00,Wunderground v.1.15,2013-01-03 21:40:00,
2013-01-03 16:50:00,42.4,36.7,30.32,WNW,297,1.0,1.0,80,0.00,,,0.00,Wunderground v.1.15,2013-01-03 21:50:00,
2013-01-03 17:00:00,42.2,36.2,30.32,NW,308,0.0,0.0,79,0.00,,,0.00,Wunderground v.1.15,2013-01-03 22:00:00,
2013-01-03 17:05:00,42.2,36.5,30.32,NW,308,0.0,4.0,80,0.00,,,0.00,Wunderground v.1.15,2013-01-03 22:05:00,
2013-01-03 17:15:00,41.9,36.2,30.32,NW,308,0.0,4.0,80,0.00,,,0.00,Wunderground v.1.15,2013-01-03 22:15:00,
2013-01-03 17:25:00,41.6,36.2,30.32,NW,308,0.0,0.0,81,0.00,,,0.00,Wunderground v.1.15,2013-01-03 22:25:00,
2013-01-03 17:35:00,41.2,36.1,30.33,WNW,293,0.0,0.0,82,0.00,,,0.00,Wunderground v.1.15,2013-01-03 22:35:00,
2013-01-03 17:40:00,41.0,35.6,30.33,WNW,293,0.0,0.0,81,0.00,,,0.00,Wunderground v.1.15,2013-01-03 22:40:00,
2013-01-03 17:45:00,40.7,35.3,30.33,WNW,300,0.0,0.0,81,0.00,,,0.00,Wunderground v.1.15,2013-01-03 22:45:00,
2013-01-03 17:55:00,40.2,34.8,30.34,WNW,283,0.0,0.0,81,0.00,,,0.00,Wunderground v.1.15,2013-01-03 22:55:00,
2013-01-03 18:05:00,39.8,34.4,30.34,WNW,284,0.0,4.0,81,0.00,,,0.00,Wunderground v.1.15,2013-01-03 23:05:00,
2013-01-03 18:10:00,39.5,34.2,30.35,WNW,284,0.0,4.0,81,0.00,,,0.00,Wunderground v.1.15,2013-01-03 23:10:00,
2013-01-03 18:20:00,38.5,34.1,30.35,WNW,284,0.0,0.0,84,0.00,,,0.00,Wunderground v.1.15,2013-01-03 23:20:00,
2013-01-03 18:30:00,37.1,33.6,30.35,WNW,284,0.0,0.0,87,0.00,,,0.00,Wunderground v.1.15,2013-01-03 23:30:00,
2013-01-03 18:40:00,36.0,32.8,30.35,WNW,284,0.0,0.0,88,0.00,,,0.00,Wunderground v.1.15,2013-01-03 23:40:00,
2013-01-03 18:45:00,35.6,32.7,30.35,WNW,284,0.0,0.0,89,0.00,,,0.00,Wunderground v.1.15,2013-01-03 23:45:00,
2013-01-03 18:50:00,35.2,32.6,30.35,WNW,284,0.0,0.0,90,0.00,,,0.00,Wunderground v.1.15,2013-01-03 23:50:00,
2013-01-03 19:00:00,34.6,32.2,30.35,WNW,284,0.0,0.0,91,0.00,,,0.00,Wunderground v.1.15,2013-01-04 00:00:00,
2013-01-03 19:05:00,34.3,32.2,30.36,WNW,284,0.0,2.0,92,0.00,,,0.00,Wunderground v.1.15,2013-01-04 00:05:00,
2013-01-03 19:15:00,33.6,31.5,30.35,WNW,284,0.0,2.0,92,0.00,,,0.00,Wunderground v.1.15,2013-01-04 00:15:00,
2013-01-03 19:25:00,32.9,31.1,30.36,WNW,284,0.0,0.0,93,0.00,,,0.00,Wunderground v.1.15,2013-01-04 00:25:00,
2013-01-03 19:30:00,32.5,30.7,30.36,WNW,284,0.0,0.0,93,0.00,,,0.00,Wunderground v.1.15,2013-01-04 00:30:00,
2013-01-03 19:35:00,32.2,30.4,30.36,WNW,284,0.0,0.0,93,0.00,,,0.00,Wunderground v.1.15,2013-01-04 00:35:00,
2013-01-03 19:45:00,31.8,30.3,30.36,WNW,284,0.0,0.0,94,0.00,,,0.00,Wunderground v.1.15,2013-01-04 00:45:00,
2013-01-03 19:55:00,31.1,29.6,30.37,WNW,284,0.0,0.0,94,0.00,,,0.00,Wunderground v.1.15,2013-01-04 00:55:00,
2013-01-03 20:05:00,30.5,29.0,30.37,WNW,284,0.0,0.0,94,0.00,,,0.00,Wunderground v.1.15,2013-01-04 01:05:00,
2013-01-03 20:10:00,30.3,28.8,30.37,WNW,284,0.0,0.0,94,0.00,,,0.00,Wunderground v.1.15,2013-01-04 01:10:00,
2013-01-03 20:15:00,30.1,28.6,30.38,WNW,284,0.0,0.0,94,0.00,,,0.00,Wunderground v.1.15,2013-01-04 01:15:00,
2013-01-03 20:25:00,29.7,28.4,30.37,WNW,284,0.0,0.0,95,0.00,,,0.00,Wunderground v.1.15,2013-01-04 01:25:00,
2013-01-03 20:35:00,29.3,28.0,30.38,WNW,284,0.0,0.0,95,0.00,,,0.00,Wunderground v.1.15,2013-01-04 01:35:00,
2013-01-03 20:45:00,29.0,27.7,30.38,WNW,284,0.0,0.0,95,0.00,,,0.00,Wunderground v.1.15,2013-01-04 01:45:00,
2013-01-03 20:50:00,28.8,27.5,30.38,WNW,284,0.0,0.0,95,0.00,,,0.00,Wunderground v.1.15,2013-01-04 01:50:00,
2013-01-03 21:00:00,28.5,27.3,30.38,WNW,284,0.0,0.0,95,0.00,,,0.00,Wunderground v.1.15,2013-01-04 02:00:00,
2013-01-03 21:05:00,28.4,27.4,30.38,WNW,284,0.0,1.0,96,0.00,,,0.00,Wunderground v.1.15,2013-01-04 02:05:00,
2013-01-03 21:15:00,28.2,27.2,30.38,WNW,284,0.0,1.0,96,0.00,,,0.00,Wunderground v.1.15,2013-01-04 02:15:00,
2013-01-03 21:25:00,28.1,27.1,30.38,WNW,283,0.0,0.0,96,0.00,,,0.00,Wunderground v.1.15,2013-01-04 02:25:00,
2013-01-03 21:35:00,28.1,27.1,30.39,WNW,284,0.0,0.0,96,0.00,,,0.00,Wunderground v.1.15,2013-01-04 02:35:00,
2013-01-03 21:40:00,28.0,27.0,30.39,WNW,283,0.0,0.0,96,0.00,,,0.00,Wunderground v.1.15,2013-01-04 02:40:00,
2013-01-03 21:50:00,27.9,26.9,30.39,WNW,284,0.0,0.0,96,0.00,,,0.00,Wunderground v.1.15,2013-01-04 02:50:00,
2013-01-03 22:00:00,27.8,26.8,30.39,WNW,283,0.0,0.0,96,0.00,,,0.00,Wunderground v.1.15,2013-01-04 03:00:00,
2013-01-03 22:10:00,27.6,26.6,30.38,WNW,284,0.0,1.0,96,0.00,,,0.00,Wunderground v.1.15,2013-01-04 03:10:00,
2013-01-03 22:15:00,27.6,26.6,30.38,WNW,283,0.0,1.0,96,0.00,,,0.00,Wunderground v.1.15,2013-01-04 03:15:00,
2013-01-03 22:20:00,27.5,26.5,30.39,WNW,284,0.0,0.0,96,0.00,,,0.00,Wunderground v.1.15,2013-01-04 03:20:00,
2013-01-03 22:30:00,27.3,26.3,30.39,WNW,284,0.0,0.0,96,0.00,,,0.00,Wunderground v.1.15,2013-01-04 03:30:00,
2013-01-03 22:35:00,27.3,26.3,30.39,WNW,284,0.0,0.0,96,0.00,,,0.00,Wunderground v.1.15,2013-01-04 03:35:00,
2013-01-03 22:45:00,27.1,26.1,30.39,WNW,284,0.0,0.0,96,0.00,,,0.00,Wunderground v.1.15,2013-01-04 03:45:00,
2013-01-03 22:50:00,26.9,25.9,30.39,WNW,284,0.0,0.0,96,0.00,,,0.00,Wunderground v.1.15,2013-01-04 03:50:00,
2013-01-03 23:00:00,26.8,25.8,30.39,WNW,284,0.0,0.0,96,0.00,,,0.00,Wunderground v.1.15,2013-01-04 04:00:00,
2013-01-03 23:05:00,26.8,25.8,30.39,WNW,284,0.0,0.0,96,0.00,,,0.00,Wunderground v.1.15,2013-01-04 04:05:00,
2013-01-03 23:15:00,26.7,25.7,30.40,WNW,285,0.0,0.0,96,0.00,,,0.00,Wunderground v.1.15,2013-01-04 04:15:00,
2013-01-03 23:20:00,26.6,25.6,30.40,WNW,285,0.0,0.0,96,0.00,,,0.00,Wunderground v.1.15,2013-01-04 04:20:00,
2013-01-03 23:25:00,26.5,25.5,30.40,WNW,284,0.0,0.0,96,0.00,,,0.00,Wunderground v.1.15,2013-01-04 04:25:00,
2013-01-03 23:35:00,26.3,25.3,30.40,WNW,284,0.0,0.0,96,0.00,,,0.00,Wunderground v.1.15,2013-01-04 04:35:00,
2013-01-03 23:40:00,26.3,25.3,30.40,WNW,284,0.0,0.0,96,0.00,,,0.00,Wunderground v.1.15,2013-01-04 04:40:00,
2013-01-03 23:50:00,26.1,25.1,30.39,WNW,284,0.0,0.0,96,0.00,,,0.00,Wunderground v.1.15,2013-01-04 04:50:00,
2013-01-03 23:55:00,26.1,25.1,30.39,WNW,283,0.0,1.0,96,0.00,,,0.00,Wunderground v.1.15,2013-01-04 04:55:00,